Location: Hope
(40.9110°N, 74.9680°W)
Time: 13:40:43
(UTC-05:00)

FORTE - Pass Details

Date: 13 December 2021
Orbit: 785 x 822 km, 70.0° (Epoch: 22 January)

Event Time Altitude Azimuth Distance (km) Brightness Sun altitude
Exits shadow 03:53:59 17° 39° (NE) 1,912 9.3 -37.3°
Drops below altitude 10° 03:55:15 10° 35° (NE) 2,371 9.9 -37.0°
Sets 03:57:44 0° 31° (NNE) 3,311 10.6 -36.6°
